SCP
0 0 0 0 0 0 0 0 0 0 0 0 0 0 0 0 0 0 0 0 0 0
0 0 0 0 0 0 0 0 0 0 0 0 0 0 0 0 0 0 0 0 0 0
0 0 0 0 0 0 0 0 0 0 0 0 0 0 0 0 0 0 0 0 0 0
0 0 0 0 0 0 0 0 0 0 0 0 0 0 0 0 0 0 0 0 0 0
0 0 0 0 0 0 0 0 0 0 0 0 0 0 0 0 0 0 0 0 0 0
0 0 0 0 0 0 0 0 0 0 0 0 0 0 0 0 0 0 0 0 0 0
0 0 0 0 0 0 0 0 0 0 0 0 0 0 0 0 0 0 0 0 0 0
0 0 0 0 0 0 0 0 0 0 0 0 0 0 0 0 0 0 0 0 0 0
0 0 0 0 0 0 0 0 0 0 0 0 0 0 0 0 0 0 0 0 0 0
0 0 0 0 0 0 0 0 0 0 0 0 0 0 0 0 0 0 0 0 0 0
0 0 0 0 0 0 0 0 0 0 0 0 0 0 0 0 0 0 0 0 0 0
0 0 0 0 0 0 0 0 0 0 0 0 0 0 0 0 0 0 0 0 0 0
0 0 0 0 0 0 0 0 0 0 0 0 0 0 0 0 0 0 0 0 0 0
0 0 0 0 0 0 0 0 0 0 0 0 0 0 0 0 0 0 0 0 0 0
Wind_Speed_500mb
34 32 30 32 32 38 38 37 37 40 45 45 47 47 54 56 63 61 63 66 65 69
19 21 22 23 23 26 29 32 34 38 41 42 46 47 49 53 56 59 61 65 67 70
13 12 13 12 11 13 15 16 18 21 28 32 36 40 43 48 52 58 61 64 68 71
18 16 14 12 10 11 13 16 20 25 30 35 39 43 47 51 54 60 64 68 72 74
16 12 7 7 9 14 18 22 26 31 34 38 42 46 51 56 58 62 66 69 73 76
5 3 4 8 13 17 22 25 28 31 34 37 39 43 46 51 54 58 62 65 69 71
2 2 5 9 13 18 21 25 29 32 36 39 41 45 48 52 55 57 59 61 64 66
5 9 13 16 19 23 27 31 36 40 42 44 47 50 54 57 59 62 64 65 66 67
8 12 16 20 24 28 31 35 38 41 44 46 48 52 55 60 63 64 68 70 69 70
12 16 21 26 31 35 37 39 41 44 47 48 48 51 54 58 63 67 66 68 71 73
19 24 28 32 37 41 43 45 48 49 53 57 55 59 60 62 65 70 73 73 72 74
27 33 38 41 43 47 50 50 53 55 57 61 61 63 66 69 73 75 76 77 77 76
37 43 48 50 51 53 57 60 60 63 62 65 68 67 69 71 75 79 79 78 78 77
46 50 54 58 59 63 65 69 70 72 71 69 70 71 68 69 72 73 77 79 79 75
Wind_Direction_500mb
218 222 227 233 236 238 242 246 250 251 259 260 262 268 266 275 268 273 271 274 276 279
198 206 218 225 231 236 239 241 244 249 255 262 267 271 272 273 273 272 275 274 276 275
173 188 197 207 220 233 238 241 246 253 258 262 267 270 273 275 278 279 281 282 281 279
139 143 152 165 186 220 240 250 259 267 272 275 276 277 278 278 280 281 282 282 282 282
140 146 170 206 242 262 274 280 282 283 283 284 286 286 286 286 286 286 285 284 283 283
123 164 245 271 283 287 290 293 294 295 295 294 293 292 291 290 289 287 286 284 281 282
113 341 317 314 312 311 310 309 308 308 307 306 304 302 300 299 299 297 296 295 292 289
14 347 335 329 323 321 319 317 315 313 311 309 308 306 306 304 303 303 302 301 300 297
347 333 329 327 322 318 315 314 312 310 309 311 312 311 310 309 308 307 306 305 303 301
332 328 326 323 320 316 314 314 314 313 312 311 311 309 308 307 307 306 305 305 304 302
322 321 320 317 313 310 310 310 311 312 311 311 312 309 308 306 304 303 304 303 303 301
314 313 312 311 310 308 308 308 309 309 308 307 308 307 307 306 304 302 302 302 302 301
310 309 308 308 307 306 306 306 306 306 307 307 306 306 305 305 303 303 302 301 300 300
305 304 302 301 302 302 302 301 302 302 302 301 301 302 304 304 303 303 303 303 303 303
Wind_Speed_850mb
34 32 30 32 32 38 38 37 37 40 45 45 47 47 54 56 63 61 63 66 65 69
19 21 22 23 23 26 29 32 34 38 41 42 46 47 49 53 56 59 61 65 67 70
13 12 13 12 11 13 15 16 18 21 28 32 36 40 43 48 52 58 61 64 68 71
18 16 14 12 10 11 13 16 20 25 30 35 39 43 47 51 54 60 64 68 72 74
16 12 7 7 9 14 18 22 26 31 34 38 42 46 51 56 58 62 66 69 73 76
5 3 4 8 13 17 22 25 28 31 34 37 39 43 46 51 54 58 62 65 69 71
2 2 5 9 13 18 21 25 29 32 36 39 41 45 48 52 55 57 59 61 64 66
5 9 13 16 19 23 27 31 36 40 42 44 47 50 54 57 59 62 64 65 66 67
8 12 16 20 24 28 31 35 38 41 44 46 48 52 55 60 63 64 68 70 69 70
12 16 21 26 31 35 37 39 41 44 47 48 48 51 54 58 63 67 66 68 71 73
19 24 28 32 37 41 43 45 48 49 53 57 55 59 60 62 65 70 73 73 72 74
27 33 38 41 43 47 50 50 53 55 57 61 61 63 66 69 73 75 76 77 77 76
37 43 48 50 51 53 57 60 60 63 62 65 68 67 69 71 75 79 79 78 78 77
46 50 54 58 59 63 65 69 70 72 71 69 70 71 68 69 72 73 77 79 79 75
Wind_Direction_850mb
218 222 227 233 236 238 242 246 250 251 259 260 262 268 266 275 268 273 271 274 276 279
198 206 218 225 231 236 239 241 244 249 255 262 267 271 272 273 273 272 275 274 276 275
173 188 197 207 220 233 238 241 246 253 258 262 267 270 273 275 278 279 281 282 281 279
139 143 152 165 186 220 240 250 259 267 272 275 276 277 278 278 280 281 282 282 282 282
140 146 170 206 242 262 274 280 282 283 283 284 286 286 286 286 286 286 285 284 283 283
123 164 245 271 283 287 290 293 294 295 295 294 293 292 291 290 289 287 286 284 281 282
113 341 317 314 312 311 310 309 308 308 307 306 304 302 300 299 299 297 296 295 292 289
14 347 335 329 323 321 319 317 315 313 311 309 308 306 306 304 303 303 302 301 300 297
347 333 329 327 322 318 315 314 312 310 309 311 312 311 310 309 308 307 306 305 303 301
332 328 326 323 320 316 314 314 314 313 312 311 311 309 308 307 307 306 305 305 304 302
322 321 320 317 313 310 310 310 311 312 311 311 312 309 308 306 304 303 304 303 303 301
314 313 312 311 310 308 308 308 309 309 308 307 308 307 307 306 304 302 302 302 302 301
310 309 308 308 307 306 306 306 306 306 307 307 306 306 305 305 303 303 302 301 300 300
305 304 302 301 302 302 302 301 302 302 302 301 301 302 304 304 303 303 303 303 303 303